星链-34423 (STARLINK-34423)

导读

STARLINK-34423是美国于2025年6月18日发射的星链系列卫星,隶属于SpaceX公司的星链互联网卫星星座项目。星链项目旨在构建全球卫星互联网,为全球偏远地区、海洋等网络覆盖薄弱区域提供高速低延迟的宽带服务,该卫星的入轨进一步扩充了星链星座的规模,提升全球网络覆盖能力。

基本信息
目录编号:
64460
目录名称:
STARLINK-34423
国际标识:
2025-130Y
轨道中心:
EARTH
卫星名称:
星链-34423
卫星全名:
星链-34423 (STARLINK-34423)
卫星状态:
在轨 (已飞行452 天)
发射日期:
2025-06-18 UTC
国别 :
美国 (US)
星等 :
--
该卫星已列入 空间交会检测服务 Space Conjunction Data Service (SCDS) ,当前飞行风险评估等级: 高风险
轨道信息
数据来源 国际轨道数据
星历时间: 2026-09-12T03:54:06+0800
1天前
查看轨道信息
半长轴: 6840.833km
偏心率: 0.0001374
轨道倾角: 53.157°
近地点辐角 89.576°
升交点赤经 302.389°
平近点角 270.540°
近地点: 461.756km
远地点: 463.636km
周期: 93.848分钟
每日圈数: 15.344027
详细信息
固有亮度:
5
最大亮度:
2.5
卫星平台:
Starlink V1.0
覆盖范围:
全球
运营商:
太空探索技术公司
运营商所在国:
美国
制造商(研发单位):
太空探索技术公司
制造商所在国:
美国
使用方式:
暂无
卫星简介
Starlink 计划是 SpaceX 推出的全球卫星互联网项目,通过发射低轨道卫星,为全球尤其是偏远地区提供高速、低延迟的互联网服务。自 2019 年起,Starlink 已部署数千颗卫星,旨在缩小全球数字鸿沟,推动互联网普及。该项目还为军事、航空等行业提供通信支持,带来广泛经济效益。
2D轨道图
3D轨道图
轨道高度分析图
轨道倾角分析图
轨道综合分析图
查看轨道综合分析图
交会数据列表
事件ID 空间交会对象 最接近时刻(TCA) 交会距离 交会风险概率(CRP) 交会风险指数(CRI) 操作
CDM_260914-232306-153106-446021
2026-09-14T
23:23:18+0000
0.347 km
远距离
2.375564E-4 高风险 0.83
CDM_260915-022106-446006-509721
2026-09-15T
02:21:27+0000
0.485 km
远距离
1.396799E-4 高风险 0.78
CDM_260915-075906-153106-446021
2026-09-15T
07:59:10+0000
0.795 km
远距离
2.670289E-5 中风险 0.64
CDM_260913-022702-898006-446022
ST5-A (28980)
2026-09-13T
02:27:16+0000
1.952 km
极远距离
1.933562E-6 低风险 0.41
CDM_260915-005706-153106-446021
2026-09-15T
00:57:06+0000
1.865 km
极远距离
1.697623E-6 低风险 0.4
CDM_260915-004706-446006-509721
2026-09-15T
00:47:39+0000
2.040 km
极远距离
1.685836E-6 低风险 0.4
CDM_260914-214906-153106-446021
2026-09-14T
21:49:30+0000
2.442 km
极远距离
9.511386E-7 极低风险 0.35
CDM_260915-035506-446006-509721
2026-09-15T
03:55:14+0000
2.889 km
极远距离
9.057534E-7 极低风险 0.34
与全量物体交会距离演化趋势
与全量物体交会风险概率演化趋势